Total_Precipitation_Accumulation
1.60 1.60 1.44 1.44 1.47 1.70 2.04 2.35 2.38 2.59 2.67 2.45 2.04 1.79 1.76 1.67 1.72 1.67 1.38 1.41 1.59 1.63 1.61 1.59 1.55 1.53 1.56 1.49 1.31 1.19 1.01 0.90 0.79 0.64 0.46 0.37 0.39 0.36 0.24 0.15 0.08 0.05 0.04
1.40 1.37 1.35 1.41 1.45 1.46 1.61 1.99 2.24 2.46 2.39 2.15 1.73 1.59 1.54 1.60 1.55 1.52 1.34 1.37 1.50 1.39 1.38 1.53 1.66 1.71 1.72 1.63 1.45 1.31 1.15 1.00 0.84 0.65 0.55 0.49 0.36 0.33 0.33 0.25 0.15 0.08 0.04
1.11 1.13 1.14 1.13 1.19 1.20 1.22 1.36 1.59 1.77 1.72 1.63 1.52 1.53 1.52 1.47 1.35 1.32 1.36 1.31 1.22 1.27 1.29 1.34 1.43 1.56 1.71 1.82 1.75 1.56 1.32 1.13 0.93 0.72 0.55 0.44 0.37 0.26 0.20 0.21 0.22 0.17 0.08
0.68 0.70 0.71 0.69 0.72 0.69 0.73 0.86 0.97 1.09 1.20 1.32 1.40 1.38 1.40 1.40 1.30 1.30 1.28 1.24 1.23 1.09 1.23 1.28 1.27 1.31 1.47 1.65 1.76 1.86 1.68 1.34 1.09 0.91 0.71 0.51 0.41 0.33 0.23 0.19 0.22 0.22 0.15
0.45 0.50 0.50 0.50 0.45 0.42 0.44 0.46 0.58 0.70 0.81 0.91 0.92 1.00 0.97 0.92 0.89 0.86 0.91 0.83 0.97 0.96 1.02 1.09 1.15 1.14 1.28 1.53 1.84 2.09 2.04 1.67 1.32 1.10 0.96 0.78 0.62 0.47 0.34 0.27 0.22 0.20 0.17
0.36 0.41 0.39 0.37 0.33 0.32 0.36 0.41 0.48 0.49 0.51 0.55 0.50 0.56 0.59 0.52 0.53 0.49 0.47 0.53 0.62 0.63 0.70 0.85 0.88 0.79 1.01 1.32 1.62 1.88 1.99 1.90 1.60 1.30 1.22 1.14 1.01 0.75 0.53 0.40 0.31 0.25 0.19
0.31 0.39 0.32 0.35 0.33 0.29 0.29 0.31 0.35 0.36 0.33 0.32 0.37 0.38 0.32 0.30 0.30 0.25 0.26 0.32 0.41 0.49 0.60 0.76 0.79 0.78 0.74 0.82 0.93 1.21 1.56 1.84 1.84 1.55 1.38 1.33 1.26 0.99 0.64 0.53 0.48 0.36 0.28
0.19 0.26 0.34 0.28 0.28 0.29 0.28 0.27 0.30 0.29 0.26 0.27 0.34 0.37 0.33 0.34 0.31 0.17 0.24 0.28 0.32 0.46 0.55 0.62 0.69 0.75 0.67 0.70 0.48 0.61 1.01 1.32 1.65 1.65 1.43 1.31 1.32 1.13 0.78 0.59 0.52 0.47 0.40
0.13 0.17 0.24 0.26 0.29 0.26 0.30 0.35 0.32 0.30 0.24 0.21 0.27 0.35 0.34 0.33 0.34 0.30 0.28 0.28 0.32 0.45 0.52 0.60 0.62 0.66 0.69 0.75 0.74 0.57 0.71 0.82 1.21 1.60 1.65 1.40 1.20 1.08 0.94 0.82 0.67 0.49 0.41
0.11 0.10 0.11 0.16 0.24 0.27 0.35 0.27 0.30 0.32 0.28 0.22 0.22 0.24 0.24 0.26 0.30 0.33 0.32 0.28 0.32 0.38 0.40 0.41 0.46 0.57 0.60 0.60 0.60 0.46 0.39 0.49 0.85 1.33 1.60 1.62 1.41 1.20 1.05 1.00 1.02 0.87 0.60
0.15 0.14 0.12 0.12 0.13 0.19 0.27 0.30 0.36 0.33 0.34 0.30 0.23 0.21 0.21 0.19 0.20 0.19 0.25 0.28 0.26 0.21 0.22 0.28 0.34 0.47 0.49 0.47 0.55 0.44 0.34 0.40 0.56 0.85 1.14 1.39 1.45 1.32 1.14 1.16 1.40 1.52 1.30
0.24 0.22 0.20 0.21 0.21 0.19 0.18 0.20 0.24 0.31 0.36 0.37 0.29 0.23 0.25 0.23 0.17 0.15 0.12 0.14 0.21 0.15 0.16 0.19 0.27 0.37 0.41 0.47 0.48 0.40 0.41 0.48 0.54 0.63 0.74 0.90 1.08 1.13 1.07 1.11 1.33 1.66 1.82
0.28 0.27 0.24 0.26 0.28 0.28 0.25 0.20 0.17 0.21 0.29 0.34 0.32 0.29 0.23 0.18 0.18 0.20 0.16 0.10 0.11 0.11 0.15 0.15 0.23 0.28 0.28 0.45 0.59 0.60 0.52 0.53 0.53 0.55 0.61 0.65 0.76 0.91 0.91 0.93 1.08 1.37 1.67
0.32 0.27 0.24 0.24 0.27 0.30 0.32 0.29 0.23 0.22 0.24 0.28 0.30 0.35 0.30 0.15 0.15 0.20 0.21 0.20 0.17 0.14 0.18 0.20 0.30 0.34 0.32 0.38 0.51 0.61 0.56 0.51 0.44 0.42 0.45 0.47 0.51 0.61 0.71 0.75 0.81 0.91 1.09
0.37 0.31 0.25 0.23 0.25 0.27 0.31 0.33 0.32 0.31 0.29 0.26 0.29 0.37 0.35 0.25 0.17 0.15 0.21 0.26 0.30 0.24 0.21 0.27 0.40 0.46 0.38 0.39 0.42 0.41 0.51 0.51 0.44 0.39 0.33 0.34 0.36 0.37 0.42 0.50 0.56 0.58 0.60
0.24 0.27 0.24 0.21 0.21 0.23 0.29 0.33 0.37 0.43 0.44 0.40 0.36 0.38 0.39 0.37 0.34 0.26 0.23 0.27 0.31 0.31 0.28 0.25 0.40 0.48 0.51 0.41 0.45 0.48 0.50 0.48 0.41 0.37 0.31 0.28 0.30 0.32 0.33 0.35 0.40 0.46 0.47
0.18 0.18 0.20 0.20 0.19 0.19 0.23 0.28 0.31 0.43 0.56 0.64 0.61 0.53 0.48 0.49 0.48 0.40 0.36 0.33 0.33 0.36 0.40 0.41 0.49 0.61 0.65 0.56 0.56 0.53 0.49 0.50 0.41 0.38 0.34 0.32 0.29 0.28 0.31 0.31 0.32 0.33 0.37
0.23 0.22 0.22 0.22 0.20 0.17 0.19 0.23 0.27 0.32 0.44 0.61 0.77 0.80 0.70 0.63 0.58 0.49 0.44 0.42 0.40 0.45 0.49 0.56 0.62 0.69 0.73 0.71 0.68 0.53 0.42 0.40 0.43 0.43 0.37 0.34 0.33 0.31 0.28 0.27 0.27 0.26 0.28
0.31 0.29 0.30 0.30 0.28 0.27 0.26 0.25 0.26 0.25 0.29 0.39 0.56 0.76 0.85 0.81 0.67 0.60 0.53 0.48 0.47 0.46 0.50 0.53 0.62 0.79 0.90 0.90 0.71 0.47 0.38 0.41 0.39 0.48 0.46 0.37 0.33 0.32 0.30 0.26 0.24 0.22 0.22
0.47 0.43 0.44 0.44 0.38 0.33 0.32 0.34 0.34 0.33 0.34 0.35 0.41 0.50 0.65 0.81 0.78 0.72 0.64 0.59 0.57 0.59 0.61 0.61 0.68 0.84 1.03 1.08 0.87 0.59 0.47 0.44 0.41 0.35 0.38 0.35 0.32 0.31 0.28 0.26 0.23 0.22 0.22
0.66 0.69 0.63 0.57 0.55 0.50 0.43 0.48 0.54 0.52 0.53 0.46 0.41 0.41 0.44 0.56 0.69 0.74 0.68 0.65 0.66 0.67 0.68 0.68 0.72 0.88 1.03 1.13 0.91 0.67 0.53 0.47 0.43 0.38 0.33 0.28 0.26 0.26 0.28 0.30 0.29 0.25 0.22
0.87 0.85 0.78 0.74 0.72 0.59 0.56 0.52 0.50 0.52 0.59 0.61 0.55 0.53 0.48 0.46 0.51 0.60 0.66 0.68 0.69 0.68 0.69 0.70 0.72 0.85 0.97 1.02 1.06 0.87 0.66 0.48 0.39 0.38 0.39 0.35 0.33 0.32 0.27 0.24 0.30 0.29 0.27
0.94 0.95 0.95 0.91 0.85 0.80 0.68 0.53 0.45 0.47 0.52 0.60 0.66 0.66 0.51 0.40 0.46 0.52 0.60 0.62 0.61 0.57 0.57 0.62 0.67 0.77 1.03 1.19 1.30 1.04 0.83 0.71 0.56 0.49 0.46 0.40 0.39 0.36 0.30 0.28 0.34 0.31 0.28
0.92 0.91 0.85 0.75 0.68 0.61 0.55 0.48 0.44 0.49 0.52 0.52 0.60 0.68 0.63 0.54 0.51 0.53 0.53 0.50 0.48 0.46 0.43 0.43 0.50 0.67 0.91 1.27 1.45 1.42 1.31 1.09 0.92 0.72 0.58 0.46 0.39 0.35 0.33 0.30 0.35 0.35 0.31
0.73 0.66 0.60 0.60 0.61 0.59 0.56 0.46 0.42 0.49 0.54 0.50 0.52 0.57 0.61 0.56 0.48 0.40 0.42 0.39 0.37 0.38 0.35 0.36 0.40 0.56 0.75 1.01 1.35 1.52 1.44 1.22 0.99 0.74 0.56 0.45 0.37 0.34 0.31 0.28 0.30 0.35 0.33
0.54 0.51 0.47 0.49 0.54 0.58 0.57 0.44 0.40 0.47 0.54 0.53 0.56 0.62 0.65 0.59 0.46 0.34 0.39 0.43 0.36 0.32 0.34 0.35 0.36 0.42 0.55 0.73 1.04 1.20 1.17 1.10 0.92 0.71 0.49 0.43 0.36 0.39 0.34 0.27 0.23 0.24 0.26